Powrót do katalogu

THOR ABLESTAR DEB

AktywnyPO
NORAD 5265·DEBRIS·🇺🇸 United States

Wystrzelony Aug 13, 1965 z Vandenberg Space Force Base

Loading…

Następne Przeloty (najbliższe 24 godziny)

TLE

ŚwieżeSource: Space-Track

Epoka: Sep 14, 2026, 14:36 UTC

1 05265U 65065Q   26257.60878487  .00000124  00000-0  20188-3 0  9999
2 05265  90.1282 306.9348 0043577  98.7747  53.5925 13.42528663984610

Śledź THOR ABLESTAR DEB w czasie rzeczywistym z AllMySat

Download on the App Store